Weather History for Monte Terminillo, Italy

Change the Weather History Date:

Tuesday, July 30, 2013

  Actual Average Record
Temperature  
Mean Temperature 59 °F -  
Max Temperature 65 °F 64 °F 77 °F (2005)
Min Temperature 53 °F 54 °F 42 °F (2014)
Degree Days  
Heating Degree Days 6    
Growing Degree Days 9 (Base 50)    
Moisture  
Dew Point 51 °F    
Average Humidity 74    
Maximum Humidity 100    
Minimum Humidity 47    
Precipitation  
Precipitation 0.00 in - - ()
Sea Level Pressure  
Sea Level Pressure 30.28 in    
Wind  
Wind Speed 9 mph ()    
Max Wind Speed 16 mph    
Max Gust Speed -    
Visibility 5.3 miles    
Events Fog    
Averages and records for this station are not official NWS values.
T = Trace of Precipitation, MM = Missing Value Source: Averaged Metar Reports

Daily Weather History Graph

Daily Weather History Graph

Search for Another Location

Airport:

Trip Planner

Search our weather history database for the weather conditions in past years. The results will help you decide how hot, cold, wet, or windy it might be!

Date:

Astronomy

Jul. 30, 2013 Rise Set
Actual Time 5:58 AM CEST 8:30 PM CEST
Civil Twilight 5:26 AM CEST 9:02 PM CEST
Nautical Twilight 4:46 AM CEST 9:41 PM CEST
Astronomical Twilight 4:00 AM CEST 10:26 PM CEST
Moon 12:07 AM CEST (7/30) 2:32 PM CEST (7/30)
Length of Visible Light 15h 35m
Length of Day
14h 31m
Last Quarter, 43% of the Moon is Illuminated
Jul 30
Last Quarter
Aug 6
New
Aug 14
First Quarter
Aug 21
Full
Aug 28
Last Quarter

Hourly Weather History & Observations

Time (CEST) Temp. Dew Point Humidity Pressure Visibility Wind Dir Wind Speed Gust Speed Precip Events Conditions
12:55 AM 57.2 °F 57.2 °F 100% 30.30 in 0.0 mi North - - N/A Fog Fog
1:55 AM 57.2 °F 57.2 °F 100% 30.30 in 0.0 mi North - - N/A Fog Fog
2:00 AM 57 °F 57 °F 99%  in 0 mi West 11.5 mph - -  
2:55 AM 57.2 °F 57.2 °F 100% 30.30 in 0.0 mi North - - N/A Fog Fog
3:55 AM 55.4 °F 55.4 °F 100% 30.30 in 0.0 mi North - - N/A Fog Fog
4:55 AM 55.4 °F 55.4 °F 100% 30.27 in 0.0 mi North - - N/A Fog Fog
5:55 AM 55.4 °F 51.8 °F 88% 30.27 in - North - - N/A   Clear
6:55 AM 53.6 °F 44.6 °F 72% 30.27 in - North - - N/A   Clear
7:55 AM 53.6 °F 42.8 °F 67% 30.27 in - North - - N/A   Clear
8:00 AM 54 °F 43 °F 58%  in 16 mi WNW 9.2 mph - -  
8:55 AM 55.4 °F 41.0 °F 58% 30.27 in - North - - N/A   Clear
9:55 AM 55.4 °F 35.6 °F 47% 30.27 in - North - - N/A   Clear
10:55 AM 59.0 °F 42.8 °F 55% 30.27 in - North - - N/A   Clear
11:55 AM 59.0 °F 44.6 °F 59% 30.27 in - North - - N/A   Clear
12:55 PM 59.0 °F 44.6 °F 59% 30.27 in - North - - N/A   Clear
1:55 PM 60.8 °F 50.0 °F 68% 30.30 in - North - - N/A   Clear
2:00 PM 61 °F 50 °F 57%  in 16 mi West 13.8 mph - -  
2:55 PM 62.6 °F 53.6 °F 72% 30.30 in - North - - N/A   Clear
3:55 PM 62.6 °F 55.4 °F 77% 30.30 in - North - - N/A   Clear
4:55 PM 64.4 °F 55.4 °F 73% 30.30 in - North - - N/A   Clear
5:55 PM 64.4 °F 55.4 °F 73% 30.30 in - North - - N/A   Partly Cloudy
6:55 PM 64.4 °F 55.4 °F 73% 30.30 in - North - - N/A   Partly Cloudy
7:55 PM 64.4 °F 55.4 °F 73% 30.27 in - North - - N/A   Clear
8:00 PM 65 °F 55 °F 61%  in 16 mi West 16.1 mph - -  
8:55 PM 62.6 °F 53.6 °F 72% 30.27 in - North - - N/A   Clear
9:55 PM 62.6 °F 53.6 °F 72% 30.27 in - North - - N/A   Clear
10:55 PM 60.8 °F 51.8 °F 72% 30.27 in - North - - N/A   Clear
11:55 PM 59.0 °F 50.0 °F 72% 30.27 in - North - - N/A   Clear